Weather History for Orr, MN

Change the Weather History Date:

Sunday, December 23, 2012

  Actual Average Record
Temperature  
Mean Temperature 4 °F -  
Max Temperature 10 °F 14 °F 35 °F (2005)
Min Temperature -2 °F 0 °F -27 °F (2013)
Degree Days  
Heating Degree Days 61    
Moisture  
Dew Point 0 °F    
Average Humidity 82    
Maximum Humidity 92    
Minimum Humidity 73    
Precipitation  
Precipitation 0.00 in - - ()
Sea Level Pressure  
Sea Level Pressure 30.06 in    
Wind  
Wind Speed 3 mph (NW)    
Max Wind Speed 7 mph    
Max Gust Speed -    
Visibility 10 miles    
Events Snow    
Averages and records for this station are not official NWS values.
T = Trace of Precipitation, MM = Missing Value Source: NWS Daily Summary

Daily Weather History Graph

Daily Weather History Graph

Search for Another Location

Airport:

Trip Planner

Search our weather history database for the weather conditions in past years. The results will help you decide how hot, cold, wet, or windy it might be!

Date:

Astronomy

Dec. 23, 2012 Rise Set
Actual Time 7:59 AM CST 4:22 PM CST
Civil Twilight 7:23 AM CST 4:58 PM CST
Nautical Twilight 6:43 AM CST 5:38 PM CST
Astronomical Twilight 6:05 AM CST 6:16 PM CST
Moon 1:21 PM CST (12/23) 3:32 AM CST (12/23)
Length of Visible Light 9h 35m
Length of Day
8h 22m
Waxing Gibbous, 82% of the Moon is Illuminated
Dec 23
Waxing Gibbous
Dec 28
Full
Jan 4
Last Quarter
Jan 11
New
Jan 18
First Quarter

Hourly Weather History & Observations

Time (CST) Temp. Windchill Dew Point Humidity Pressure Visibility Wind Dir Wind Speed Gust Speed Precip Events Conditions
12:13 AM 10.4 °F 2.2 °F 6.8 °F 85% 30.05 in 10.0 mi NNW 4.6 mph - N/A Snow Light Snow
12:33 AM 10.4 °F - 6.8 °F 85% 30.06 in 10.0 mi Calm Calm - N/A Snow Light Snow
12:53 AM 10.4 °F - 5.0 °F 79% 30.06 in 5.0 mi Calm Calm - N/A Snow Light Snow
1:13 AM 10.4 °F - 6.8 °F 85% 30.06 in 7.0 mi Calm Calm - N/A Snow Light Snow
1:33 AM 10.4 °F 0.8 °F 5.0 °F 79% 30.06 in 10.0 mi NW 5.8 mph - N/A Snow Light Snow
1:53 AM 10.4 °F 4.0 °F 5.0 °F 79% 30.07 in 10.0 mi NW 3.5 mph - N/A Snow Light Snow
2:13 AM 8.6 °F 0.1 °F 5.0 °F 85% 30.07 in 10.0 mi NW 4.6 mph - N/A Snow Light Snow
2:33 AM 8.6 °F - 3.2 °F 79% 30.08 in 10.0 mi Calm Calm - N/A Snow Light Snow
2:53 AM 6.8 °F -0.1 °F 3.2 °F 85% 30.08 in 10.0 mi NW 3.5 mph - N/A Snow Light Snow
3:13 AM 6.8 °F -0.1 °F 3.2 °F 85% 30.08 in 10.0 mi NW 3.5 mph - N/A Snow Light Snow
3:33 AM 5.0 °F - 1.4 °F 85% 30.09 in 10.0 mi Calm Calm - N/A   Scattered Clouds
3:53 AM 5.0 °F - 1.4 °F 85% 30.09 in 10.0 mi Calm Calm - N/A   Scattered Clouds
4:13 AM 5.0 °F -2.1 °F 1.4 °F 85% 30.09 in 10.0 mi NW 3.5 mph - N/A Snow Light Snow
4:33 AM 5.0 °F -4.1 °F 1.4 °F 85% 30.09 in 10.0 mi NW 4.6 mph - N/A   Clear
4:53 AM 5.0 °F -2.1 °F 1.4 °F 85% 30.10 in 10.0 mi NW 3.5 mph - N/A   Clear
5:13 AM 3.2 °F -6.2 °F -0.4 °F 85% 30.10 in 10.0 mi NW 4.6 mph - N/A   Clear
5:33 AM 1.4 °F -6.2 °F -0.4 °F 92% 30.09 in 10.0 mi NW 3.5 mph - N/A   Clear
5:53 AM 3.2 °F -6.2 °F -0.4 °F 85% 30.09 in 10.0 mi NW 4.6 mph - N/A   Clear
6:13 AM 3.2 °F -6.2 °F -0.4 °F 85% 30.09 in 10.0 mi NW 4.6 mph - N/A   Clear
6:33 AM 1.4 °F -8.3 °F -2.2 °F 85% 30.09 in 10.0 mi NW 4.6 mph - N/A   Clear
6:53 AM 1.4 °F -6.2 °F -2.2 °F 85% 30.08 in 10.0 mi NW 3.5 mph - N/A   Clear
7:13 AM 1.4 °F - -2.2 °F 85% 30.08 in 10.0 mi Calm Calm - N/A   Clear
7:53 AM -0.4 °F - -5.8 °F 78% 30.08 in 10.0 mi Calm Calm - N/A   Clear
8:14 AM -0.4 °F - -5.8 °F 78% 30.08 in 10.0 mi Calm Calm - N/A   Scattered Clouds
8:33 AM -0.4 °F - -4.0 °F 85% 30.07 in 10.0 mi Calm Calm - N/A Snow Light Snow
8:53 AM -0.4 °F - -4.0 °F 85% 30.08 in 10.0 mi Calm Calm - N/A   Clear
9:13 AM 1.4 °F - -2.2 °F 85% 30.08 in 10.0 mi Calm Calm - N/A   Clear
9:33 AM 1.4 °F - -2.2 °F 85% 30.08 in 10.0 mi Calm Calm - N/A   Clear
9:53 AM 3.2 °F -4.2 °F -0.4 °F 85% 30.08 in 10.0 mi WNW 3.5 mph - N/A   Clear
10:13 AM 3.2 °F -4.2 °F -0.4 °F 85% 30.09 in 10.0 mi WNW 3.5 mph - N/A   Clear
10:34 AM 3.2 °F -4.2 °F -0.4 °F 85% 30.09 in 10.0 mi WNW 3.5 mph - N/A   Clear
10:53 AM 5.0 °F -4.1 °F 1.4 °F 85% 30.09 in 10.0 mi WNW 4.6 mph - N/A   Clear
11:13 AM 6.8 °F -2.0 °F 1.4 °F 79% 30.08 in 10.0 mi WNW 4.6 mph - N/A   Clear
11:33 AM 6.8 °F -2.0 °F 1.4 °F 79% 30.07 in 10.0 mi WNW 4.6 mph - N/A   Clear
12:13 PM 8.6 °F 0.1 °F 3.2 °F 79% 30.07 in 10.0 mi WNW 4.6 mph - N/A   Clear
12:33 PM 8.6 °F 0.1 °F 3.2 °F 79% 30.07 in 10.0 mi WNW 4.6 mph - N/A   Clear
12:53 PM 8.6 °F 0.1 °F 3.2 °F 79% 30.07 in 10.0 mi WNW 4.6 mph - N/A   Clear
1:13 PM 10.4 °F 4.0 °F 3.2 °F 73% 30.06 in 10.0 mi WNW 3.5 mph - N/A   Clear
1:33 PM 10.4 °F 0.8 °F 5.0 °F 79% 30.06 in 10.0 mi WNW 5.8 mph - N/A   Clear
1:53 PM 10.4 °F 4.0 °F 3.2 °F 73% 30.05 in 10.0 mi WNW 3.5 mph - N/A   Clear
2:13 PM 10.4 °F 2.2 °F 3.2 °F 73% 30.05 in 10.0 mi WNW 4.6 mph - N/A   Clear
2:33 PM 10.4 °F 4.0 °F 3.2 °F 73% 30.05 in 10.0 mi WNW 3.5 mph - N/A   Clear
2:53 PM 6.8 °F -0.1 °F 3.2 °F 85% 30.06 in 10.0 mi WNW 3.5 mph - N/A   Clear
3:13 PM 6.8 °F - 3.2 °F 85% 30.06 in 10.0 mi Calm Calm - N/A   Clear
3:33 PM 6.8 °F - 1.4 °F 79% 30.05 in 10.0 mi Calm Calm - N/A   Clear
3:53 PM 6.8 °F -0.1 °F 1.4 °F 79% 30.06 in 10.0 mi WNW 3.5 mph - N/A   Clear
4:13 PM 6.8 °F -0.1 °F 1.4 °F 79% 30.05 in 10.0 mi NW 3.5 mph - N/A   Clear
4:53 PM 5.0 °F -2.1 °F 1.4 °F 85% 30.05 in 10.0 mi NW 3.5 mph - N/A   Clear
5:13 PM 5.0 °F -2.1 °F 1.4 °F 85% 30.05 in 10.0 mi NW 3.5 mph - N/A   Clear
5:33 PM 3.2 °F -7.8 °F -0.4 °F 85% 30.05 in 10.0 mi WNW 5.8 mph - N/A   Clear
5:53 PM 3.2 °F -6.2 °F -0.4 °F 85% 30.05 in 10.0 mi WNW 4.6 mph - N/A   Clear
6:14 PM 3.2 °F -7.8 °F -0.4 °F 85% 30.06 in 10.0 mi WNW 5.8 mph - N/A   Clear
6:33 PM 3.2 °F -9.1 °F -0.4 °F 85% 30.05 in 10.0 mi WNW 6.9 mph - N/A   Clear
6:53 PM 3.2 °F -9.1 °F -0.4 °F 85% 30.05 in 10.0 mi NW 6.9 mph - N/A   Clear
7:13 PM 1.4 °F -9.9 °F -2.2 °F 85% 30.05 in 10.0 mi NW 5.8 mph - N/A   Clear
7:33 PM 1.4 °F -8.3 °F -2.2 °F 85% 30.06 in 10.0 mi WNW 4.6 mph - N/A   Clear
7:53 PM 1.4 °F -9.9 °F -2.2 °F 85% 30.06 in 10.0 mi NW 5.8 mph - N/A   Clear
8:13 PM 1.4 °F -6.2 °F -2.2 °F 85% 30.05 in 10.0 mi NW 3.5 mph - N/A   Clear
8:33 PM -0.4 °F -8.3 °F -4.0 °F 85% 30.04 in 10.0 mi NW 3.5 mph - N/A   Clear
8:53 PM -0.4 °F -10.4 °F -4.0 °F 85% 30.03 in 10.0 mi NW 4.6 mph - N/A   Clear
9:13 PM -0.4 °F -8.3 °F -5.8 °F 78% 30.03 in 10.0 mi NW 3.5 mph - N/A   Clear
9:33 PM -0.4 °F -10.4 °F -5.8 °F 78% 30.03 in 10.0 mi NW 4.6 mph - N/A   Clear
9:53 PM -0.4 °F -10.4 °F -5.8 °F 78% 30.03 in 10.0 mi NW 4.6 mph - N/A   Clear
10:13 PM -0.4 °F -12.0 °F -5.8 °F 78% 30.03 in 10.0 mi WNW 5.8 mph - N/A   Clear
10:34 PM -0.4 °F -10.4 °F -5.8 °F 78% 30.03 in 10.0 mi NW 4.6 mph - N/A   Scattered Clouds
10:53 PM -2.2 °F -14.2 °F -5.8 °F 85% 30.03 in 10.0 mi NW 5.8 mph - N/A   Mostly Cloudy
11:13 PM -2.2 °F -15.6 °F -7.6 °F 78% 30.02 in 10.0 mi WNW 6.9 mph - N/A   Overcast
11:33 PM -2.2 °F -10.4 °F -7.6 °F 78% 30.02 in 10.0 mi NW 3.5 mph - N/A   Overcast
11:53 PM -2.2 °F -12.5 °F -7.6 °F 78% 30.01 in 10.0 mi NW 4.6 mph - N/A   Overcast